Previsão horária em Plosno

Hoje, 8 Março, Segunda-feira

Tempo Temperatura Precipitação Vento Pressão Humidade
00:00 -1°C° 0.1 mm 2 m/s 757 mmHg 92%
01:00 -2°C° 0 mm 2 m/s 757 mmHg 91%
02:00 -2°C° 0 mm 2 m/s 757 mmHg 87%
03:00 -3°C° 0 mm 2 m/s 757 mmHg 83%
04:00 -3°C° 0 mm 2 m/s 757 mmHg 80%
05:00 -3°C° 0 mm 2 m/s 758 mmHg 78%
06:00 -3°C° 0 mm 2 m/s 758 mmHg 76%
07:00 -1°C° 0 mm 1 m/s 758 mmHg 74%
08:00 -1°C° 0 mm 2 m/s 759 mmHg 67%
09:00 0°C° 0 mm 3 m/s 760 mmHg 60%
10:00 +2°C° 0 mm 3 m/s 760 mmHg 53%
11:00 +2°C° 0 mm 3 m/s 760 mmHg 49%
12:00 +3°C° 0 mm 3 m/s 760 mmHg 45%
13:00 +3°C° 0 mm 3 m/s 760 mmHg 40%
14:00 +3°C° 0 mm 3 m/s 760 mmHg 41%
15:00 +3°C° 0 mm 3 m/s 760 mmHg 42%
16:00 +3°C° 0 mm 3 m/s 760 mmHg 42%
17:00 +1°C° 0 mm 3 m/s 760 mmHg 50%
18:00 +1°C° 0 mm 2 m/s 760 mmHg 57%
19:00 -2°C° 0 mm 2 m/s 761 mmHg 65%
20:00 -2°C° 0 mm 2 m/s 761 mmHg 67%
21:00 -3°C° 0 mm 2 m/s 761 mmHg 70%
22:00 -3°C° 0 mm 2 m/s 761 mmHg 72%
23:00 -1°C° 0 mm 1 m/s 761 mmHg 72%

Amanhã, 9 Março, Terça-feira

Tempo Temperatura Precipitação Vento Pressão Humidade
00:00 -1°C° 0 mm 1 m/s 761 mmHg 72%
01:00 -2°C° 0 mm 1 m/s 761 mmHg 72%
02:00 -2°C° 0 mm 1 m/s 760 mmHg 72%
03:00 -2°C° 0 mm 1 m/s 760 mmHg 72%
04:00 -2°C° 0 mm 1 m/s 760 mmHg 71%
05:00 -2°C° 0 mm 1 m/s 760 mmHg 71%
06:00 -1°C° 0 mm 1 m/s 760 mmHg 70%
07:00 -1°C° 0 mm 1 m/s 760 mmHg 70%
08:00 0°C° 0 mm 1 m/s 760 mmHg 63%
09:00 +1°C° 0 mm 1 m/s 760 mmHg 56%
10:00 +2°C° 0 mm 2 m/s 760 mmHg 49%
11:00 +4°C° 0 mm 1 m/s 759 mmHg 44%
12:00 +4°C° 0 mm 1 m/s 759 mmHg 40%
13:00 +5°C° 0 mm 1 m/s 759 mmHg 35%
14:00 +5°C° 0 mm 1 m/s 759 mmHg 35%
15:00 +5°C° 0 mm 1 m/s 758 mmHg 35%
16:00 +5°C° 0 mm 1 m/s 758 mmHg 35%
17:00 +4°C° 0 mm 1 m/s 758 mmHg 40%
18:00 +2°C° 0 mm 1 m/s 758 mmHg 44%
19:00 0°C° 0 mm 1 m/s 758 mmHg 49%
20:00 0°C° 0 mm 1 m/s 759 mmHg 49%
21:00 0°C° 0 mm 1 m/s 759 mmHg 50%
22:00 0°C° 0 mm 1 m/s 759 mmHg 51%
23:00 -1°C° 0 mm 1 m/s 759 mmHg 51%

Depois de amanhã, 10 Março, Quarta-feira

Tempo Temperatura Precipitação Vento Pressão Humidade
00:00 -1°C° 0 mm 1 m/s 759 mmHg 52%
01:00 -1°C° 0 mm 1 m/s 759 mmHg 52%
02:00 -1°C° 0 mm 1 m/s 759 mmHg 52%
03:00 -1°C° 0 mm 1 m/s 759 mmHg 53%
04:00 -1°C° 0 mm 1 m/s 759 mmHg 53%
05:00 -1°C° 0 mm 1 m/s 759 mmHg 53%
06:00 -1°C° 0 mm 1 m/s 759 mmHg 52%
07:00 -1°C° 0 mm 1 m/s 759 mmHg 52%
08:00 +1°C° 0 mm 1 m/s 759 mmHg 48%
09:00 +3°C° 0 mm 1 m/s 759 mmHg 43%
10:00 +3°C° 0 mm 2 m/s 760 mmHg 39%
11:00 +4°C° 0 mm 2 m/s 760 mmHg 36%
12:00 +5°C° 0 mm 2 m/s 760 mmHg 34%
13:00 +6°C° 0 mm 2 m/s 760 mmHg 32%
14:00 +5°C° 0 mm 2 m/s 759 mmHg 34%
15:00 +5°C° 0 mm 2 m/s 759 mmHg 36%
16:00 +5°C° 0 mm 2 m/s 759 mmHg 38%
17:00 +4°C° 0 mm 2 m/s 759 mmHg 43%
18:00 +2°C° 0 mm 2 m/s 759 mmHg 48%
19:00 -1°C° 0 mm 2 m/s 759 mmHg 53%
20:00 -1°C° 0 mm 3 m/s 759 mmHg 54%
21:00 -1°C° 0 mm 3 m/s 759 mmHg 55%
22:00 -2°C° 0 mm 4 m/s 759 mmHg 56%
23:00 -2°C° 0 mm 4 m/s 758 mmHg 59%

11 Março, Quinta-feira

Tempo Temperatura Precipitação Vento Pressão Humidade
00:00 -2°C° 0 mm 4 m/s 758 mmHg 62%
01:00 -2°C° 0 mm 4 m/s 757 mmHg 65%
02:00 -2°C° 0 mm 4 m/s 756 mmHg 70%
03:00 -2°C° 0 mm 5 m/s 756 mmHg 75%
04:00 -2°C° 0 mm 5 m/s 755 mmHg 79%
05:00 -1°C° 0 mm 5 m/s 754 mmHg 79%
06:00 -2°C° 0 mm 6 m/s 753 mmHg 78%
07:00 -1°C° 0 mm 6 m/s 753 mmHg 77%
08:00 -1°C° 0.2 mm 6 m/s 752 mmHg 79%
09:00 0°C° 0.2 mm 7 m/s 751 mmHg 81%
10:00 +2°C° 0.2 mm 7 m/s 751 mmHg 83%
11:00 +2°C° 0.4 mm 7 m/s 750 mmHg 85%
12:00 +2°C° 0.4 mm 7 m/s 749 mmHg 86%
13:00 +1°C° 0.4 mm 8 m/s 748 mmHg 88%
14:00 +3°C° 0.8 mm 7 m/s 747 mmHg 89%
15:00 +3°C° 0.8 mm 6 m/s 747 mmHg 90%
16:00 +3°C° 0.8 mm 6 m/s 746 mmHg 91%
17:00 +3°C° 0.3 mm 5 m/s 746 mmHg 91%
18:00 +5°C° 0.3 mm 5 m/s 745 mmHg 91%
19:00 +5°C° 0.3 mm 5 m/s 745 mmHg 90%
20:00 +5°C° 0.4 mm 4 m/s 745 mmHg 90%
21:00 +5°C° 0.4 mm 4 m/s 745 mmHg 90%
22:00 +5°C° 0.4 mm 4 m/s 745 mmHg 90%
23:00 +5°C° 0 mm 5 m/s 745 mmHg 89%

12 Março, Sexta-feira

Tempo Temperatura Precipitação Vento Pressão Humidade
00:00 +3°C° 0 mm 5 m/s 745 mmHg 89%
01:00 +3°C° 0 mm 6 m/s 745 mmHg 88%
02:00 +3°C° 0 mm 6 m/s 746 mmHg 88%
03:00 +3°C° 0 mm 6 m/s 746 mmHg 88%
04:00 +2°C° 0 mm 6 m/s 746 mmHg 87%
05:00 +2°C° 0 mm 6 m/s 747 mmHg 86%
06:00 +2°C° 0 mm 6 m/s 747 mmHg 85%
07:00 +2°C° 0 mm 6 m/s 748 mmHg 84%
08:00 +3°C° 0 mm 7 m/s 748 mmHg 80%
09:00 +4°C° 0 mm 7 m/s 749 mmHg 75%
10:00 +5°C° 0 mm 8 m/s 749 mmHg 70%
11:00 +5°C° 0 mm 8 m/s 749 mmHg 65%
12:00 +6°C° 0 mm 8 m/s 749 mmHg 61%
13:00 +7°C° 0 mm 8 m/s 749 mmHg 56%
14:00 +8°C° 0 mm 7 m/s 749 mmHg 57%
15:00 +6°C° 0 mm 7 m/s 749 mmHg 57%
16:00 +7°C° 0 mm 6 m/s 749 mmHg 58%
17:00 +5°C° 0 mm 6 m/s 749 mmHg 62%
18:00 +5°C° 0 mm 5 m/s 749 mmHg 67%
19:00 +4°C° 0 mm 4 m/s 749 mmHg 72%
20:00 +4°C° 0 mm 4 m/s 749 mmHg 72%
21:00 +3°C° 0 mm 5 m/s 749 mmHg 72%
22:00 +3°C° 0 mm 6 m/s 749 mmHg 72%
23:00 +3°C° 0 mm 6 m/s 748 mmHg 73%

13 Março, Sábado

Tempo Temperatura Precipitação Vento Pressão Humidade
00:00 +3°C° 0 mm 5 m/s 748 mmHg 75%
01:00 +3°C° 0 mm 5 m/s 748 mmHg 76%
02:00 +3°C° 0 mm 5 m/s 748 mmHg 80%
03:00 +3°C° 0 mm 5 m/s 747 mmHg 84%
04:00 +3°C° 0 mm 4 m/s 747 mmHg 88%
05:00 +3°C° 0 mm 4 m/s 747 mmHg 89%
06:00 +3°C° 0 mm 4 m/s 748 mmHg 90%
07:00 +1°C° 0 mm 4 m/s 748 mmHg 91%
08:00 +2°C° 0.1 mm 5 m/s 748 mmHg 85%
09:00 +5°C° 0.1 mm 5 m/s 748 mmHg 79%
10:00 +5°C° 0.1 mm 6 m/s 749 mmHg 72%
11:00 +5°C° 0.1 mm 6 m/s 749 mmHg 67%
12:00 +6°C° 0.1 mm 7 m/s 749 mmHg 61%
13:00 +8°C° 0.1 mm 7 m/s 748 mmHg 56%
14:00 +8°C° 0.2 mm 7 m/s 748 mmHg 57%
15:00 +8°C° 0.2 mm 7 m/s 748 mmHg 59%
16:00 +6°C° 0.2 mm 7 m/s 748 mmHg 61%
17:00 +5°C° 0 mm 6 m/s 748 mmHg 66%
18:00 +5°C° 0 mm 5 m/s 748 mmHg 70%
19:00 +5°C° 0 mm 4 m/s 747 mmHg 75%
20:00 +5°C° 0 mm 5 m/s 747 mmHg 77%
21:00 +4°C° 0 mm 6 m/s 747 mmHg 80%
22:00 +4°C° 0 mm 7 m/s 746 mmHg 83%
23:00 +4°C° 0.2 mm 7 m/s 746 mmHg 84%
Mostrar mais

Necessitamos do seu Consentimento

A Meteoprog e os seus Fornecedores de Serviços podem armazenar e aceder a dados pessoais como cookies, identificadores do dispositivo ou outras tecnologias semelhantes existentes no seu dispositivo e processar estes dados para personalizar conteúdos e anúncios, assim como funcionalidades nas redes sociais e análise de tráfego.

  • Armazenar e/ou aceder a informações no seu dispositivo

    Os cookies, identificadores do dispositivo ou outras informações podem ser armazenados ou acedidos no seu dispositivo, para os fins acima indicados.

  • Anúncios e conteúdos personalizados, medição de anúncios e conteúdos, dados sobre o público-alvo e desenvolvimento de produtos

    Os anúncios e os conteúdos podem ser personalizados com base num perfil. Podem ser adicionados dados adicionais para uma maior personalização dos anúncios e dos conteúdos. A eficácia dos anúncios e dos conteúdos pode ser medida. Podem ser obtidas informações sobre o público que visualizou os anúncios e os conteúdos. Estes dados podem ser usados para desenvolver ou melhorar sistemas, softwares ou a experiência do utilizador.

Ao clicar em "Eu concordo”, permitirá o uso de cookies, identificadores do dispositivo e web beacons mencionados ou outras tecnologias semelhantes. As configurações do navegador do seu dispositivo podem ser alteradas.

Para certos fins, podem ser invocados interesses legítimos ao invés de consentimento. Pode ler mais informação sobre este assunto na nossa Política de Privacidade e Cookies.